Find Starlink 34643

NORAD ID: 64923 Int'l Des: 2025-157 Owner: SPXS Country: US Constellation: starlink operational
LEOCIRCULAR

实时位置

正在加载3D地球...

关于 Starlink 34643

正在加载描述...

即将过境

Passes for default location (London). Set your location on the main map for personalized predictions.

高度历史

Loading altitude history...

两行轨道根数

1 64923U 25157V 26104.50459193 .00006702 00000-0 23817-3 0 9992
2 64923 53.1557 179.5608 0000915 81.9891 278.1213 15.30201234 41605
Epoch: Apr 14, 2026 • Age: 6 hours

当前状态

高度 477.6 km
速度 7.63 km/s
星下点 -8.32°S, 54.14°E
发射日期 Jul 26, 2025
运行时间 0.7 years
类型 internet

技术详情

分类 Payload
质量 575.00 kg
干质量 530.00 kg
总质量 575.00 kg
长度 0.30 m
直径 4.10 m
跨度 29.00 m
形状 Box + pan
制造商 SPXS
平台类型 Starlink V2MO
阶段状态 In Orbit
所有者/国家 SPXS/US

Most Searched